STARLINK-11318, 61252

Orbit data source: Space-Track

STARLINK-11318, 61252 is a payload satellite owned by SpaceX/Seattle (US) in LEO that was launched on Wed, 25 Sep 2024 UTC via an FALCON 9 launch vehicle from the Air Force Western Test Range (AFWTR). Payloads include a variety of satellites, spacecraft, and rockets equipped with specific instruments for various scientific and technological missions. These include communications satellites like Starlink; space stations such as the ISS; scientific satellites like the Hubble; Earth observation satellites from companies like Planet Labs, Umbra, and HawkEye 360; GPS; miniature CubeSats for education and research; and military/defense satellites.

Loading next visibility...
STARLINK-11318 details
Identifier
61252, 2024-175K
Orbit
LEO
Last TLE update23 hours ago
Origin
Flag of USSpaceX/Seattle (US)
ManufacturerSpaceX/Seattle
MissionOperational spacecraft
Bus & MotorSTARLINK V2M, Unknown motor
Mass730 kg wet, ~700 kg dry
Launch date (UTC)
2024-09-25 (3 months ago)
Launch vehicle
FALCON 9
Launch site
Air Force Western Test Range (AFWTR)
Object type
Payload
Rocket body
Debris
Shape & HBRUnknown
Radar Cross SectionLarge (>1 m²)

Expand to show TLE details & history

TLE from 23 hours ago
0 STARLINK-11318
1 61252U 24175K   24355.53605224  .00002896  00000-0  28730-4 0  9990
2 61252  53.1578  86.0358 0001245  98.9178 261.1981 15.69733217 14480
Epoch: 2024-12-20T12:51Z
Definitive object data (Epoch: 2024-12-20T12:51:54.913Z)
Latitude-0.00001°
Longitude163.45683°
Altitude360.704 km
Speed7.694 km/s
True Right ascension05h 44m 08s
True Declination0° 00' 00"
Sunlit
Object was in full shadow at TLE epoch
Visualization TLE readout
Latitude30.30104°
Longitude-175.477°
Altitude361.01 km
Speed7.697 km/s
Apparent Right ascension03h 39m 14s
Apparent Declination-7° 30' 49"
Sunlit
Object is in full shadow
Visualization observer readout
Local Sidereal Time10:58:45
Azimuth277.093° WNW
Elevation-20.026°
Doppler factor1
Orbital elements
Apogee altitude360.76 km
Perigee altitude359.082 km
Semi-major axis6,738.058 km
Eccentricity0.0001245
Inclination53.1578°
RAAN86.0358°
Arg. of periapsis98.9178°
True anomaly261.184°
Mean anomaly261.1981°
Eccentric anomaly261.19105°
Mean motion3.92411 °/min
BSTAR0.00002873
Orbital period91.74 mins
Loading maneuver chart data...
Loading historical data...
Loading historical data...
Loading historical data...
Loading historical data...
Loading historical data...
Loading historical data...
Loading historical data...

STARLINK-11318 Visibility forecast

Observer location: undefined°, undefined

Span
Click to sort rows by Start time (UTC) header in descending order
Start Az.
Max El. time (UTC)
Max El. Az.
Max El.
End time (UTC)
End Az.
4 mins2024-12-21 15:20:02.366Z327.366° NNW2024-12-21 15:22:02.366Z50.149° ENE36.25°2024-12-21 15:24:02.366Z108.829° ESE
|